CW6427 Weather Reports


Display with metric or nautical units.
time (UTC)temp
F
wind
direction
speed
MPH
gust
MPH
rain 1hr
in
rain 24hr
in
rain mn
in
humidity
%
barometer
mb
20260903153851 70 286 1.0 6.0 0.00 0.39 0.07 97 1017.0
20260903152850 70 281 1.0 5.0 0.00 0.41 0.07 96 1017.1
20260903151851 70 288 1.0 8.0 0.00 0.42 0.07 96 1017.1
20260903150851 70 330 2.0 5.0 0.00 0.45 0.07 96 1017.1
20260903145850 70 355 0.0 4.0 0.00 0.50 0.07 96 1017.0
20260903144850 70 340 1.0 4.0 0.00 0.73 0.07 96 1017.0
20260903143850 70 239 0.0 8.0 0.00 0.90 0.07 95 1016.9
20260903142850 70 99 0.0 3.0 0.00 0.97 0.07 96 1016.8
20260903140849 70 175 4.0 6.0 0.00 1.37 0.07 96 1016.9
20260903135849 70 221 5.0 8.0 0.00 1.56 0.07 96 1016.7
20260903134849 69 185 5.0 7.0 0.00 1.70 0.07 96 1016.6
20260903133849 69 185 3.0 5.0 0.00 1.72 0.07 96 1016.5
20260903132849 69 201 2.0 6.0 0.00 1.72 0.07 96 1016.7
20260903131849 69 200 4.0 7.0 0.00 1.72 0.07 96 1016.6
20260903130848 69 173 3.0 9.0 0.00 1.72 0.07 96 1016.8
20260903124848 69 210 3.0 8.0 0.00 1.72 0.07 97 1017.0
20260903120847 68 197 6.0 8.0 0.00 1.72 0.07 97 1016.9
20260903115847 68 218 4.0 9.0 0.00 1.72 0.07 97 1016.8
20260903114847 68 193 4.0 9.0 0.00 1.72 0.07 96 1016.7
20260903112847 68 227 5.0 10.0 0.00 1.72 0.07 96 1016.4
20260903111846 68 192 5.0 11.0 0.00 1.72 0.07 97 1016.4
20260903110846 68 178 8.0 10.0 0.00 1.72 0.07 96 1016.2
20260903105846 67 192 6.0 10.0 0.00 1.72 0.07 97 1016.1
20260903104846 67 211 4.0 9.0 0.00 1.72 0.07 97 1016.2
20260903103845 67 197 5.0 9.0 0.00 1.72 0.07 97 1016.3
20260903102846 67 190 6.0 9.0 0.00 1.72 0.07 97 1016.2
20260903101845 67 198 5.0 9.0 0.00 1.72 0.07 97 1016.0
20260903100845 67 211 5.0 9.0 0.00 1.72 0.07 97 1016.1
20260903095845 67 179 5.0 10.0 0.00 1.72 0.07 97 1016.2
20260903094845 67 194 5.0 6.0 0.00 1.72 0.07 97 1016.3
20260903093844 67 182 5.0 12.0 0.00 1.72 0.07 97 1016.2
20260903092845 67 186 7.0 8.0 0.00 1.72 0.07 98 1016.2
20260903091844 67 196 2.0 4.0 0.00 1.73 0.07 97 1016.1
20260903090844 67 200 2.0 6.0 0.00 1.73 0.07 97 1016.2
20260903085844 67 183 5.0 8.0 0.00 1.73 0.07 97 1016.3
20260903084844 67 211 3.0 7.0 0.00 1.73 0.07 97 1016.1
20260903082844 67 182 7.0 10.0 0.00 1.73 0.07 97 1016.4
20260903081843 67 211 3.0 11.0 0.00 1.73 0.07 98 1016.3
20260903080843 67 206 8.0 12.0 0.00 1.73 0.07 98 1016.2
20260903075843 67 180 9.0 10.0 0.00 1.73 0.07 98 1016.3
20260903074843 67 216 5.0 10.0 0.01 1.73 0.07 98 1016.5
20260903072842 67 185 6.0 10.0 0.01 1.73 0.07 98 1016.6
20260903071842 67 205 3.0 8.0 0.01 1.73 0.07 98 1016.8
20260903070842 67 198 2.0 8.0 0.01 1.73 0.07 98 1016.8
20260903065842 67 297 5.0 8.0 0.01 1.73 0.07 98 1016.6
20260903064842 67 209 8.0 14.0 0.00 1.72 0.06 98 1016.7
20260903063841 67 174 9.0 17.0 0.00 1.72 0.06 98 1016.4
20260903062841 66 204 5.0 11.0 0.01 1.72 0.06 98 1016.4
20260903061841 66 175 4.0 11.0 0.03 1.72 0.06 99 1016.3
20260903060841 66 203 11.0 13.0 0.06 1.72 0.06 99 1016.3
20260903055841 66 171 8.0 13.0 0.06 1.72 0.06 99 1016.7
20260903054841 66 196 5.0 16.0 0.06 1.72 0.06 98 1016.8
20260903053840 67 209 11.0 15.0 0.06 1.72 0.06 98 1016.3
20260903052840 66 190 11.0 17.0 0.05 1.71 0.05 98 1016.2
20260903051840 67 223 7.0 16.0 0.03 1.69 0.03 98 1016.3
20260903050840 67 202 11.0 19.0 0.00 1.66 0.00 98 1016.4
20260903045840 66 232 7.0 13.0 0.00 1.66 0.00 98 1016.0
20260903044840 66 219 7.0 17.0 0.00 1.66 0.00 99 1015.8
20260903043839 66 177 9.0 18.0 0.00 1.66 0.00 99 1015.6
20260903042839 66 171 13.0 19.0 0.00 1.66 0.00 99 1015.8
20260903041839 66 174 10.0 17.0 0.01 1.66 0.00 99 1016.1
20260903040839 66 148 8.0 16.0 0.02 1.66 0.00 99 1016.7
20260903035839 66 163 12.0 17.0 0.02 1.66 1.66 99 1016.6
20260903033838 66 188 9.0 22.0 0.05 1.66 1.66 99 1016.8
20260903032838 66 190 11.0 24.0 0.06 1.66 1.66 99 1016.7
20260903030908 65 150 14.0 17.0 0.08 1.64 1.64 99 1015.3
20260903025838 65 168 10.0 18.0 0.10 1.64 1.64 99 1015.6
20260903024838 65 178 5.0 15.0 0.09 1.63 1.63 99 1015.8
20260903023838 65 173 9.0 18.0 0.09 1.61 1.61 99 1015.7
20260903022837 65 173 8.0 19.0 0.15 1.60 1.60 99 1016.5
20260903021837 65 183 7.0 21.0 0.19 1.59 1.59 98 1016.7
20260903020836 65 195 9.0 15.0 0.18 1.56 1.56 98 1017.5
20260903015837 65 175 6.0 16.0 0.18 1.54 1.54 98 1016.6
20260903014836 66 159 8.0 18.0 0.19 1.54 1.54 97 1017.6
20260903013836 69 205 12.0 14.0 0.17 1.52 1.52 98 1018.2
20260903012836 69 179 6.0 12.0 0.10 1.45 1.45 99 1018.0
20260903011836 70 148 8.0 13.0 0.05 1.40 1.40 98 1017.9
20260903010906 70 146 9.0 10.0 0.03 1.38 1.38 98 1018.0
20260903005835 70 157 6.0 19.0 0.01 1.36 1.36 98 1018.0
20260903004836 70 180 14.0 18.0 0.00 1.35 1.35 98 1017.9
20260903003835 70 178 8.0 14.0 0.00 1.35 1.35 98 1017.5
20260903002835 70 178 5.0 12.0 0.00 1.35 1.35 97 1016.8
20260902235835 70 167 8.0 15.0 0.00 1.35 1.35 98 1017.1
20260902233904 70 190 11.0 19.0 0.00 1.35 1.35 98 1016.9
20260902232904 70 152 10.0 18.0 0.00 1.35 1.35 98 1017.1
20260902231904 70 167 15.0 20.0 0.00 1.35 1.35 98 1017.3
20260902230834 70 165 12.0 20.0 0.00 1.35 1.35 98 1017.1
20260902225904 70 163 10.0 18.0 0.00 1.35 1.35 97 1016.8
20260902224833 71 153 9.0 16.0 0.00 1.35 1.35 97 1016.5
20260902223903 71 173 10.0 15.0 0.00 1.35 1.35 97 1016.8
20260902222903 71 180 7.0 20.0 0.00 1.35 1.35 96 1016.6
20260902221833 72 188 10.0 16.0 0.00 1.35 1.35 96 1016.9
20260902220903 72 170 10.0 14.0 0.00 1.35 1.35 95 1017.3
20260902215903 72 161 8.0 15.0 0.00 1.35 1.35 95 1017.7
20260902214832 73 163 8.0 13.0 0.00 1.35 1.35 94 1017.8
20260902213902 73 149 4.0 11.0 0.00 1.35 1.35 94 1018.1
20260902212902 73 148 8.0 11.0 0.00 1.35 1.35 94 1018.4
20260902211902 73 150 8.0 14.0 0.00 1.35 1.35 94 1018.3
20260902210902 73 194 8.0 12.0 0.00 1.35 1.35 93 1018.3
20260902205902 74 160 6.0 13.0 0.00 1.35 1.35 93 1018.4
20260902204831 74 138 11.0 13.0 0.00 1.35 1.35 93 1018.2
20260902203901 74 175 9.0 15.0 0.00 1.35 1.35 93 1018.4
20260902202901 74 154 9.0 16.0 0.00 1.35 1.35 93 1018.4
20260902201901 73 161 9.0 17.0 0.00 1.35 1.35 93 1018.2
20260902200901 73 150 11.0 16.0 0.00 1.35 1.35 94 1017.9
20260902195901 73 142 14.0 18.0 0.00 1.35 1.35 94 1018.0
20260902194901 73 158 10.0 15.0 0.00 1.35 1.35 93 1018.1
20260902193900 74 162 8.0 14.0 0.00 1.35 1.35 91 1018.1
20260902192901 75 144 10.0 16.0 0.00 1.35 1.35 91 1018.2
20260902191900 75 137 16.0 18.0 0.00 1.35 1.35 90 1018.3
20260902190900 75 186 9.0 22.0 0.00 1.35 1.35 89 1018.4
20260902185900 76 190 8.0 18.0 0.00 1.35 1.35 89 1018.8
20260902183859 75 145 10.0 20.0 0.00 1.35 1.35 89 1018.9
20260902182859 75 131 16.0 18.0 0.00 1.35 1.35 88 1018.8
20260902181859 76 139 13.0 21.0 0.00 1.35 1.35 88 1018.8
20260902180859 76 155 14.0 22.0 0.00 1.35 1.35 87 1018.9
20260902175859 76 141 13.0 21.0 0.00 1.35 1.35 86 1018.9
20260902174859 75 189 13.0 21.0 0.00 1.35 1.35 88 1019.0
20260902173858 75 167 17.0 19.0 0.00 1.35 1.35 88 1019.0
20260902172858 74 153 8.0 15.0 0.00 1.35 1.35 87 1018.9
20260902171858 73 158 8.0 24.0 0.00 1.35 1.35 87 1019.0
20260902165858 73 154 14.0 21.0 0.00 1.35 1.35 87 1019.0
20260902164858 72 190 10.0 18.0 0.00 1.35 1.35 90 1019.4
20260902163857 71 159 7.0 12.0 0.01 1.35 1.35 96 1019.3
20260902162857 70 169 9.0 12.0 0.03 1.35 1.35 98 1019.3
20260902161857 68 142 8.0 10.0 0.04 1.35 1.35 100 1019.5
20260902160857 68 105 3.0 10.0 0.07 1.35 1.35 100 1019.8
20260902155856 66 136 1.0 5.0 0.12 1.35 1.35 100 1020.1
20260902154856 65 93 0.0 7.0 0.35 1.35 1.35 100 1020.4